Location: Unspecified
(0.0000°N, 0.0000°E)
Time: 20:42:57
(UTC+00:00)

SL-12 R/B(AUX MOTOR) DEB - Visible Passes

Search period start: 14 January 2025 00:00
Search period end: 24 January 2025 00:00
Orbit: 228 x 13390 km, 64.7° (Epoch: 07 December)

Date Brightness Start Highest point End Pass type
(mag) Time Alt. Az. Time Alt. Az. Time Alt. Az.
14 Jan ? 04:57:51 10° ESE 05:42:03 18° E 06:35:11 10° NE visible
17 Jan ? 19:54:40 10° N 19:56:56 16° N 19:56:56 16° N visible
18 Jan ? 05:04:36 10° SSE 05:55:22 30° E 07:12:19 10° NE visible
20 Jan ? 19:05:23 10° N 19:09:05 14° NE 19:09:05 14° NE visible
21 Jan ? 04:21:07 10° SE 05:09:13 21° E 06:11:11 10° NE visible
21 Jan ? 20:13:55 10° NNW 20:16:55 22° NNW 20:16:55 22° NNW visible
22 Jan ? 05:18:56 10° SSE 06:09:33 44° E 07:40:24 10° NNE visible
